Big Piney, WY

11:33 PM MDT on July 24, 2017 (GMT -0600)
Big Piney-Marbleton

Weather History for KBPI - May, 2013

Change the Weather History Date:

Tuesday, May 21, 2013

  Actual Average Record
Temperature  
Mean Temperature 49 °F 47 °F  
Max Temperature 62 °F 63 °F 81 °F (2012)
Min Temperature 35 °F 32 °F 13 °F (2001)
Degree Days  
Heating Degree Days 16 18  
Month to date heating degree days 361 435  
Since 1 July heating degree days 9268 9966  
Cooling Degree Days 0 0  
Month to date cooling degree days 0 0  
Year to date cooling degree days 0 0  
Moisture  
Dew Point 35 °F    
Average Humidity 65    
Maximum Humidity 100    
Minimum Humidity 29    
Precipitation  
Precipitation T in 0.03 in 1.12 in (1987)
Month to date precipitation 0.79 0.56  
Year to date precipitation 1.23 2.19  
Sea Level Pressure  
Sea Level Pressure 29.99 in    
Wind  
Wind Speed 4 mph (SSW)    
Max Wind Speed 24 mph    
Max Gust Speed 28 mph    
Visibility 10 miles    
Events Rain    
T = Trace of Precipitation, MM = Missing Value Source: NWS Daily Summary

Daily Weather History Graph

Daily Weather History Graph

Search for Another Location

Airport or City:

Trip Planner

Search our weather history database for the weather conditions in past years. The results will help you decide how hot, cold, wet, or windy it might be!

Date:

Astronomy

May. 21, 2013 Rise Set
Actual Time 5:52 AM MDT 8:42 PM MDT
Civil Twilight 5:19 AM MDT 9:15 PM MDT
Nautical Twilight 4:37 AM MDT 9:57 PM MDT
Astronomical Twilight 3:49 AM MDT 10:45 PM MDT
Moon 4:55 PM MDT (5/21) 3:27 AM MDT (5/21)
Length of Visible Light 15h 55m
Length of Day
14h 49m
Waxing Gibbous, 84% of the Moon is Illuminated
May 21
Waxing Gibbous
May 24
Full
May 31
Last Quarter
Jun 8
New
Jun 16
First Quarter

Hourly Weather History & Observations

Time (MDT) Temp. Windchill Dew Point Humidity Pressure Visibility Wind Dir Wind Speed Gust Speed Precip Events Conditions
12:53 AM 36.0 °F - 33.1 °F 89% 30.01 in 10.0 mi Calm Calm - N/A   Clear
1:45 AM 35.6 °F - 33.8 °F 93% 30.18 in 10.0 mi Calm Calm - N/A   Overcast
1:53 AM 37.9 °F - 35.1 °F 89% 30.01 in 10.0 mi Calm Calm - N/A   Overcast
2:41 AM 39.2 °F 37.0 °F 37.4 °F 93% 30.18 in 10.0 mi South 3.5 mph - N/A   Overcast
2:53 AM 41.0 °F 37.1 °F 39.0 °F 93% 29.99 in 10.0 mi South 5.8 mph - N/A   Overcast
3:30 AM 39.2 °F 34.2 °F 37.4 °F 93% 30.17 in 10.0 mi SSW 6.9 mph - N/A   Overcast
3:39 AM 39.2 °F 33.6 °F 37.4 °F 93% 30.17 in 10.0 mi South 8.1 mph - N/A   Mostly Cloudy
3:53 AM 37.9 °F 33.5 °F 36.0 °F 93% 29.99 in 10.0 mi SSW 5.8 mph - N/A   Mostly Cloudy
4:01 AM 37.4 °F 34.9 °F 35.6 °F 93% 30.17 in 10.0 mi SW 3.5 mph - N/A   Scattered Clouds
4:53 AM 36.0 °F 32.1 °F 35.1 °F 97% 30.01 in 10.0 mi East 4.6 mph - N/A   Scattered Clouds
5:11 AM 35.6 °F 31.7 °F 35.6 °F 100% 30.17 in 10.0 mi East 4.6 mph - N/A   Mostly Cloudy
5:35 AM 37.4 °F 34.9 °F 35.6 °F 93% 30.16 in 10.0 mi East 3.5 mph - N/A   Overcast
5:53 AM 39.0 °F - 36.0 °F 89% 30.00 in 10.0 mi Calm Calm - N/A   Overcast
6:53 AM 39.9 °F - 37.0 °F 89% 30.00 in 10.0 mi Calm Calm - N/A   Overcast
7:10 AM 39.2 °F - 37.4 °F 93% 30.16 in 10.0 mi Calm Calm - N/A   Overcast
7:53 AM 39.9 °F 37.8 °F 37.0 °F 89% 30.03 in 10.0 mi South 3.5 mph - N/A   Overcast
8:53 AM 42.1 °F - 37.0 °F 82% 30.02 in 10.0 mi Calm Calm - N/A   Overcast
9:09 AM 42.8 °F 40.1 °F 37.4 °F 81% 30.15 in 10.0 mi Variable 4.6 mph - N/A   Overcast
9:53 AM 44.1 °F 41.5 °F 37.0 °F 76% 30.01 in 10.0 mi SSW 4.6 mph - N/A   Overcast
10:26 AM 46.4 °F - 37.4 °F 71% 30.14 in 10.0 mi Calm Calm - N/A   Overcast
10:53 AM 48.0 °F - 37.0 °F 66% 30.00 in 10.0 mi South 5.8 mph - N/A   Mostly Cloudy
11:38 AM 51.8 °F - 37.4 °F 58% 30.13 in 10.0 mi Variable 6.9 mph - N/A   Scattered Clouds
11:53 AM 52.0 °F - 36.0 °F 54% 29.97 in 10.0 mi Variable 4.6 mph - N/A   Scattered Clouds
12:53 PM 55.0 °F - 36.0 °F 49% 29.96 in 10.0 mi SE 5.8 mph - N/A   Scattered Clouds
1:53 PM 57.0 °F - 34.0 °F 42% 29.91 in 10.0 mi SSW 6.9 mph - N/A   Overcast
2:53 PM 57.0 °F - 33.1 °F 40% 29.87 in 10.0 mi WSW 9.2 mph - N/A   Mostly Cloudy
3:14 PM 51.8 °F - 37.4 °F 58% 30.05 in 10.0 mi SW 8.1 mph 27.6 mph 0.00 in Rain Light Rain
3:53 PM 57.0 °F - 34.0 °F 42% 29.86 in 10.0 mi Variable 3.5 mph - 0.00 in   Overcast
4:53 PM 61.0 °F - 32.0 °F 34% 29.81 in 10.0 mi South 6.9 mph - N/A   Clear
5:53 PM 61.0 °F - 30.0 °F 31% 29.79 in 10.0 mi ESE 3.5 mph - N/A   Mostly Cloudy
6:53 PM 60.1 °F - 28.9 °F 31% 29.77 in 10.0 mi Calm Calm - N/A   Mostly Cloudy
7:53 PM 59.0 °F - 32.0 °F 36% 29.76 in 10.0 mi West 5.8 mph - N/A   Mostly Cloudy
8:53 PM 55.0 °F - 33.1 °F 43% 29.76 in 10.0 mi WSW 3.5 mph - N/A   Scattered Clouds
9:53 PM 46.9 °F - 33.1 °F 59% 29.80 in 10.0 mi WNW 3.5 mph - N/A   Clear
10:53 PM 44.1 °F 41.5 °F 32.0 °F 63% 29.81 in 10.0 mi SSW 4.6 mph - N/A   Partly Cloudy
11:53 PM 41.0 °F - 32.0 °F 70% 29.79 in 10.0 mi Calm Calm - N/A   Mostly Cloudy